Change the Weather History Date:

Tuesday, January 1, 2013

  Actual Average Record
Temperature  
Mean Temperature 62 °F -  
Max Temperature 75 °F 63 °F 79 °F (2007)
Min Temperature 48 °F 43 °F 25 °F (2001)
Degree Days  
Heating Degree Days 4    
Growing Degree Days 12 (Base 50)    
Moisture  
Dew Point 49 °F    
Average Humidity 81    
Maximum Humidity 94    
Minimum Humidity 46    
Precipitation  
Precipitation 0.00 in - - ()
Sea Level Pressure  
Sea Level Pressure 30.15 in    
Wind  
Wind Speed 1 mph (SW)    
Max Wind Speed 15 mph    
Max Gust Speed 18 mph    
Visibility 5 miles    
Events Fog    
Averages and records for this station are not official NWS values.
T = Trace of Precipitation, MM = Missing Value Source: NWS Daily Summary

Daily Weather History Graph

Daily Weather History Graph

Search for Another Location

Airport or City:

Trip Planner

Search our weather history database for the weather conditions in past years. The results will help you decide how hot, cold, wet, or windy it might be!

Date:

Astronomy

Jan. 01, 2013 Rise Set
Actual Time 7:22 AM EST 5:36 PM EST
Civil Twilight 6:56 AM EST 6:03 PM EST
Nautical Twilight 6:26 AM EST 6:33 PM EST
Astronomical Twilight 5:57 AM EST 7:02 PM EST
Moon 9:46 PM EST (1/1) 9:52 AM EST (1/1)
Length of Visible Light 11h 06m
Length of Day
10h 14m
Waning Gibbous, 83% of the Moon is Illuminated
Jan 1
Waning Gibbous
Jan 4
Last Quarter
Jan 11
New
Jan 18
First Quarter
Jan 26
Full

Hourly Weather History & Observations

Time (EST) Temp. Dew Point Humidity Pressure Visibility Wind Dir Wind Speed Gust Speed Precip Events Conditions
12:12 AM 48.2 °F 44.6 °F 87% 30.23 in 1.0 mi Calm Calm - N/A   Mist
12:14 AM 48.2 °F 44.6 °F 87% 30.23 in 2.0 mi Calm Calm - N/A   Overcast
12:22 AM 48.2 °F 44.6 °F 87% 30.23 in 1.0 mi Calm Calm - N/A   Mist
12:25 AM 48.2 °F 44.6 °F 87% 30.23 in 0.5 mi Calm Calm - N/A Fog Fog
12:36 AM 48.2 °F 46.4 °F 93% 30.22 in 1.0 mi Calm Calm - N/A   Mist
12:53 AM 48.0 °F 45.0 °F 89% 30.22 in 1.5 mi Calm Calm - N/A   Overcast
12:57 AM 48.2 °F 44.6 °F 87% 30.22 in 0.5 mi Calm Calm - N/A Fog Fog
1:02 AM 48.2 °F 44.6 °F 87% 30.22 in 0.2 mi Calm Calm - N/A Fog Fog
1:12 AM 48.2 °F 46.4 °F 93% 30.21 in 0.8 mi Calm Calm - N/A   Overcast
1:20 AM 50.0 °F 46.4 °F 87% 30.21 in 1.5 mi Calm Calm - N/A   Overcast
1:30 AM 50.0 °F 48.2 °F 94% 30.21 in 2.5 mi Calm Calm - N/A   Overcast
1:40 AM 50.0 °F 46.4 °F 87% 30.21 in 3.0 mi Calm Calm - N/A   Overcast
1:53 AM 50.0 °F 46.9 °F 89% 30.20 in 3.0 mi Calm Calm - N/A   Overcast
2:31 AM 48.2 °F 44.6 °F 87% 30.18 in 2.5 mi Calm Calm - N/A   Overcast
2:36 AM 48.2 °F 44.6 °F 87% 30.18 in 0.8 mi Calm Calm - N/A   Overcast
2:40 AM 48.2 °F 46.4 °F 93% 30.18 in 0.2 mi Calm Calm - N/A Fog Fog
2:45 AM 48.2 °F 44.6 °F 87% 30.18 in 0.5 mi Calm Calm - N/A Fog Fog
2:49 AM 48.2 °F 44.6 °F 87% 30.17 in 1.2 mi Calm Calm - N/A   Overcast
2:53 AM 48.0 °F 45.0 °F 89% 30.17 in 2.0 mi Calm Calm - N/A   Overcast
3:42 AM 48.2 °F 46.4 °F 93% 30.17 in 1.2 mi Calm Calm - N/A   Overcast
3:53 AM 50.0 °F 46.0 °F 86% 30.17 in 1.2 mi Calm Calm - N/A   Overcast
4:53 AM 51.1 °F 46.9 °F 86% 30.17 in 1.5 mi Calm Calm - N/A   Overcast
5:53 AM 52.0 °F 48.0 °F 86% 30.17 in 1.8 mi Calm Calm - N/A   Overcast
6:29 AM 53.6 °F 50.0 °F 88% 30.15 in 3.0 mi South 5.8 mph - N/A   Mostly Cloudy
6:53 AM 54.0 °F 51.1 °F 90% 30.14 in 5.0 mi SSW 5.8 mph - N/A   Partly Cloudy
7:53 AM 55.0 °F 51.1 °F 86% 30.14 in 6.0 mi South 4.6 mph - N/A   Mostly Cloudy
8:53 AM 59.0 °F 54.0 °F 83% 30.17 in 8.0 mi SW 5.8 mph - N/A   Overcast
9:53 AM 64.0 °F 55.9 °F 75% 30.17 in 10.0 mi SW 9.2 mph - N/A   Overcast
10:53 AM 69.1 °F 54.0 °F 58% 30.17 in 10.0 mi SW 9.2 mph - N/A   Partly Cloudy
11:53 AM 72.0 °F 54.0 °F 53% 30.14 in 10.0 mi WSW 15.0 mph 18.4 mph N/A   Clear
12:53 PM 73.9 °F 54.0 °F 50% 30.10 in 10.0 mi West 11.5 mph - N/A   Scattered Clouds
2:53 PM 75.9 °F 54.0 °F 46% 30.06 in 10.0 mi WSW 11.5 mph 18.4 mph N/A   Scattered Clouds
3:53 PM 75.0 °F 53.1 °F 46% 30.05 in 10.0 mi West 11.5 mph - N/A   Scattered Clouds
4:53 PM 73.9 °F 53.1 °F 48% 30.05 in 10.0 mi WSW 5.8 mph - N/A   Partly Cloudy
6:53 PM 64.9 °F 53.1 °F 65% 30.05 in 10.0 mi Calm Calm - N/A   Clear
7:53 PM 59.0 °F 53.1 °F 81% 30.05 in 10.0 mi Calm Calm - N/A   Clear
8:53 PM 55.9 °F 51.1 °F 84% 30.05 in 10.0 mi Calm Calm - N/A   Clear
9:53 PM 57.0 °F 51.1 °F 81% 30.04 in 10.0 mi Calm Calm - N/A   Clear
10:53 PM 57.9 °F 53.1 °F 84% 30.04 in 10.0 mi Calm Calm - N/A   Clear
11:53 PM 61.0 °F 54.0 °F 78% 30.02 in 10.0 mi SSW 4.6 mph - N/A   Clear